• In Russia
  • List of Countries
  • For 7 days
  • Water Temperature
  • Satellite Maps
  • Weather Map
  • Weather Widgets
  • user-avatar
    Login

    Hourly Weather Kinshasa

    Today, 24 April, Wednesday

    Time Temperature Precipitation Wind Pressure Humidity
    00:00 +26°C° 0.5 mm 1 mps 706 mmHg 80%
    01:00 +23°C° 0 mm 0 mps 706 mmHg 81%
    02:00 +25°C° 0.1 mm 1 mps 706 mmHg 84%
    03:00 +24°C° 0.1 mm 1 mps 706 mmHg 87%
    04:00 +24°C° 0.1 mm 1 mps 706 mmHg 90%
    05:00 +24°C° 0.2 mm 1 mps 706 mmHg 90%
    06:00 +25°C° 0.2 mm 1 mps 707 mmHg 89%
    07:00 +26°C° 0 mm 1 mps 707 mmHg 83%
    08:00 +29°C° 0 mm 1 mps 708 mmHg 71%
    09:00 +32°C° 0 mm 1 mps 708 mmHg 60%
    10:00 +35°C° 0 mm 1 mps 708 mmHg 48%
    11:00 +36°C° 0 mm 1 mps 708 mmHg 43%
    12:00 +39°C° 0 mm 1 mps 708 mmHg 38%
    13:00 +40°C° 0 mm 1 mps 707 mmHg 33%
    14:00 +36°C° 0 mm 0 mps 707 mmHg 36%
    15:00 +35°C° 0 mm 0 mps 706 mmHg 39%
    16:00 +33°C° 0 mm 0 mps 706 mmHg 42%
    17:00 +33°C° 0 mm 1 mps 706 mmHg 49%
    18:00 +32°C° 0 mm 1 mps 706 mmHg 55%
    19:00 +30°C° 0 mm 1 mps 706 mmHg 61%
    20:00 +29°C° 0 mm 1 mps 706 mmHg 64%
    21:00 +28°C° 0 mm 1 mps 707 mmHg 66%
    22:00 +28°C° 0 mm 1 mps 707 mmHg 69%
    23:00 +27°C° 0.8 mm 1 mps 707 mmHg 76%

    Tomorrow, 25 April, Thursday

    Time Temperature Precipitation Wind Pressure Humidity
    00:00 +26°C° 0.8 mm 2 mps 707 mmHg 83%
    01:00 +25°C° 0.8 mm 2 mps 707 mmHg 90%
    02:00 +24°C° 0 mm 2 mps 707 mmHg 92%
    03:00 +24°C° 0 mm 1 mps 707 mmHg 94%
    04:00 +24°C° 0 mm 1 mps 707 mmHg 96%
    05:00 +24°C° 0 mm 2 mps 707 mmHg 94%
    06:00 +25°C° 0 mm 2 mps 707 mmHg 92%
    07:00 +25°C° 0 mm 2 mps 708 mmHg 90%
    08:00 +28°C° 0 mm 2 mps 708 mmHg 79%
    09:00 +30°C° 0 mm 2 mps 708 mmHg 67%
    10:00 +34°C° 0 mm 2 mps 709 mmHg 56%
    11:00 +36°C° 0 mm 2 mps 708 mmHg 49%
    12:00 +37°C° 0 mm 1 mps 708 mmHg 42%
    13:00 +40°C° 0 mm 1 mps 708 mmHg 35%
    14:00 +39°C° 0 mm 1 mps 707 mmHg 37%
    15:00 +37°C° 0 mm 1 mps 706 mmHg 38%
    16:00 +37°C° 0 mm 2 mps 706 mmHg 40%
    17:00 +34°C° 0 mm 1 mps 706 mmHg 46%
    18:00 +32°C° 0 mm 1 mps 705 mmHg 52%
    19:00 +30°C° 0 mm 1 mps 705 mmHg 58%
    20:00 +29°C° 0.1 mm 1 mps 706 mmHg 63%
    21:00 +28°C° 0.1 mm 1 mps 706 mmHg 68%
    22:00 +27°C° 0.1 mm 1 mps 706 mmHg 73%
    23:00 +27°C° 0 mm 1 mps 706 mmHg 76%

    Day after tomorrow, 26 April, Friday

    Time Temperature Precipitation Wind Pressure Humidity
    00:00 +26°C° 0 mm 1 mps 706 mmHg 80%
    01:00 +26°C° 0 mm 1 mps 706 mmHg 83%
    02:00 +25°C° 0 mm 1 mps 705 mmHg 85%
    03:00 +25°C° 0 mm 1 mps 705 mmHg 87%
    04:00 +25°C° 0 mm 1 mps 705 mmHg 89%
    05:00 +25°C° 0.3 mm 2 mps 706 mmHg 89%
    06:00 +25°C° 0.3 mm 2 mps 706 mmHg 89%
    07:00 +26°C° 0.3 mm 2 mps 707 mmHg 88%
    08:00 +28°C° 0 mm 2 mps 707 mmHg 76%
    09:00 +31°C° 0 mm 3 mps 708 mmHg 64%
    10:00 +35°C° 0 mm 3 mps 708 mmHg 52%
    11:00 +36°C° 0 mm 3 mps 708 mmHg 45%
    12:00 +38°C° 0 mm 2 mps 707 mmHg 38%
    13:00 +40°C° 0 mm 2 mps 706 mmHg 31%
    14:00 +40°C° 0 mm 2 mps 705 mmHg 31%
    15:00 +39°C° 0 mm 1 mps 705 mmHg 30%
    16:00 +39°C° 0 mm 1 mps 704 mmHg 30%
    17:00 +35°C° 0 mm 1 mps 704 mmHg 37%
    18:00 +33°C° 0 mm 1 mps 704 mmHg 44%
    19:00 +30°C° 0 mm 1 mps 704 mmHg 50%
    20:00 +29°C° 0 mm 1 mps 705 mmHg 58%
    21:00 +28°C° 0 mm 1 mps 705 mmHg 65%
    22:00 +27°C° 0 mm 1 mps 705 mmHg 73%
    23:00 +27°C° 0.1 mm 1 mps 706 mmHg 77%

    27 April, Saturday

    Time Temperature Precipitation Wind Pressure Humidity
    00:00 +26°C° 0.1 mm 1 mps 706 mmHg 81%
    01:00 +26°C° 0.1 mm 1 mps 706 mmHg 86%
    02:00 +26°C° 0.1 mm 1 mps 706 mmHg 87%
    03:00 +26°C° 0.1 mm 1 mps 706 mmHg 88%
    04:00 +25°C° 0.1 mm 1 mps 705 mmHg 89%
    05:00 +26°C° 0 mm 1 mps 706 mmHg 89%
    06:00 +26°C° 0 mm 1 mps 706 mmHg 88%
    07:00 +26°C° 0 mm 2 mps 707 mmHg 87%
    08:00 +28°C° 0 mm 2 mps 708 mmHg 78%
    09:00 +30°C° 0 mm 2 mps 708 mmHg 69%
    10:00 +32°C° 0 mm 2 mps 708 mmHg 59%
    11:00 +34°C° 0 mm 2 mps 708 mmHg 54%
    12:00 +36°C° 0 mm 2 mps 707 mmHg 48%
    13:00 +37°C° 0 mm 2 mps 706 mmHg 43%
    14:00 +37°C° 0 mm 2 mps 706 mmHg 41%
    15:00 +37°C° 0 mm 2 mps 705 mmHg 40%
    16:00 +37°C° 0 mm 2 mps 705 mmHg 38%
    17:00 +34°C° 0 mm 1 mps 705 mmHg 45%
    18:00 +33°C° 0 mm 1 mps 705 mmHg 52%
    19:00 +31°C° 0 mm 1 mps 706 mmHg 58%
    20:00 +30°C° 0.1 mm 1 mps 706 mmHg 63%
    21:00 +29°C° 0.1 mm 1 mps 706 mmHg 68%
    22:00 +28°C° 0.1 mm 1 mps 706 mmHg 72%
    23:00 +27°C° 1.7 mm 1 mps 706 mmHg 79%

    28 April, Sunday

    Time Temperature Precipitation Wind Pressure Humidity
    00:00 +26°C° 1.7 mm 1 mps 706 mmHg 85%
    01:00 +25°C° 1.7 mm 1 mps 705 mmHg 92%
    02:00 +25°C° 0.2 mm 1 mps 705 mmHg 92%
    03:00 +25°C° 0.2 mm 1 mps 705 mmHg 92%
    04:00 +25°C° 0.2 mm 1 mps 705 mmHg 92%
    05:00 +25°C° 0.1 mm 1 mps 706 mmHg 91%
    06:00 +25°C° 0.1 mm 1 mps 706 mmHg 90%
    07:00 +25°C° 0.1 mm 2 mps 707 mmHg 90%
    08:00 +28°C° 0 mm 2 mps 707 mmHg 79%
    09:00 +30°C° 0 mm 2 mps 708 mmHg 68%
    10:00 +32°C° 0 mm 2 mps 708 mmHg 58%
    11:00 +35°C° 0 mm 2 mps 707 mmHg 51%
    12:00 +37°C° 0 mm 2 mps 707 mmHg 45%
    13:00 +38°C° 0 mm 2 mps 706 mmHg 39%
    14:00 +36°C° 0 mm 1 mps 706 mmHg 41%
    15:00 +36°C° 0 mm 1 mps 705 mmHg 43%
    16:00 +35°C° 0 mm 1 mps 705 mmHg 45%
    17:00 +33°C° 0 mm 1 mps 705 mmHg 50%
    18:00 +31°C° 0 mm 1 mps 705 mmHg 56%
    19:00 +30°C° 0 mm 1 mps 706 mmHg 62%
    20:00 +28°C° 3.7 mm 2 mps 706 mmHg 72%
    21:00 +27°C° 3.7 mm 2 mps 707 mmHg 82%
    22:00 +25°C° 3.7 mm 3 mps 707 mmHg 92%
    23:00 +25°C° 0.6 mm 2 mps 707 mmHg 92%

    29 April, Monday

    Time Temperature Precipitation Wind Pressure Humidity
    00:00 +25°C° 0.6 mm 2 mps 707 mmHg 92%
    01:00 +24°C° 0.6 mm 1 mps 707 mmHg 93%
    02:00 +24°C° 0 mm 1 mps 706 mmHg 92%
    03:00 +24°C° 0 mm 2 mps 706 mmHg 92%
    04:00 +24°C° 0 mm 2 mps 706 mmHg 92%
    05:00 +24°C° 0 mm 1 mps 707 mmHg 92%
    06:00 +25°C° 0 mm 1 mps 707 mmHg 92%
    07:00 +23°C° 0 mm 0 mps 707 mmHg 92%
    08:00 +26°C° 0 mm 1 mps 708 mmHg 84%
    09:00 +28°C° 0 mm 1 mps 708 mmHg 77%
    10:00 +29°C° 0 mm 2 mps 708 mmHg 69%
    11:00 +31°C° 0 mm 2 mps 708 mmHg 62%
    12:00 +32°C° 0 mm 1 mps 707 mmHg 55%
    13:00 +34°C° 0 mm 1 mps 707 mmHg 48%
    14:00 +34°C° 0 mm 1 mps 706 mmHg 48%
    15:00 +34°C° 0 mm 1 mps 706 mmHg 47%
    16:00 +34°C° 0 mm 1 mps 705 mmHg 47%
    17:00 +32°C° 0 mm 1 mps 706 mmHg 53%
    18:00 +30°C° 0 mm 1 mps 706 mmHg 59%
    19:00 +29°C° 0 mm 1 mps 707 mmHg 65%
    20:00 +28°C° 0.5 mm 1 mps 707 mmHg 70%
    21:00 +27°C° 0.5 mm 1 mps 707 mmHg 74%
    22:00 +26°C° 0.5 mm 1 mps 707 mmHg 79%
    23:00 +26°C° 0.2 mm 1 mps 707 mmHg 82%
    Show more